Year,Month,Day,Hour,Minute,Value (Times are PST for temperature in C)
2010,07,07,00,00,21.30
2010,07,07,00,01,21.20
2010,07,07,00,02,21.20
2010,07,07,00,03,21.20
2010,07,07,00,04,21.20
2010,07,07,00,05,21.20
2010,07,07,00,06,21.20
2010,07,07,00,07,21.20
2010,07,07,00,08,21.10
2010,07,07,00,09,21.10
2010,07,07,00,10,21.10
2010,07,07,00,11,21.10
2010,07,07,00,12,21.00
2010,07,07,00,13,21.00
2010,07,07,00,14,20.90
2010,07,07,00,15,20.90
2010,07,07,00,16,20.90
2010,07,07,00,17,20.80
2010,07,07,00,18,20.80
2010,07,07,00,19,20.80
2010,07,07,00,20,20.70
2010,07,07,00,21,20.70
2010,07,07,00,22,20.70
2010,07,07,00,23,20.60
2010,07,07,00,24,20.60
2010,07,07,00,25,20.60
2010,07,07,00,26,20.50
2010,07,07,00,27,20.50
2010,07,07,00,28,20.40
2010,07,07,00,29,20.40
2010,07,07,00,30,20.40
2010,07,07,00,31,20.40
2010,07,07,00,32,20.40
2010,07,07,00,33,20.30
2010,07,07,00,34,20.30
2010,07,07,00,35,20.30
2010,07,07,00,36,20.30
2010,07,07,00,37,20.30
2010,07,07,00,38,20.20
2010,07,07,00,39,20.20
2010,07,07,00,40,20.20
2010,07,07,00,41,20.10
2010,07,07,00,42,20.10
2010,07,07,00,43,20.10
2010,07,07,00,44,20.10
2010,07,07,00,45,20.10
2010,07,07,00,46,20.10
2010,07,07,00,47,20.10
2010,07,07,00,48,20.10
2010,07,07,00,49,20.00
2010,07,07,00,50,20.00
2010,07,07,00,51,20.00
2010,07,07,00,52,20.00
2010,07,07,00,53,20.00
2010,07,07,00,54,20.00
2010,07,07,00,55,19.90
2010,07,07,00,56,19.90
2010,07,07,00,57,19.90
2010,07,07,00,58,19.90
2010,07,07,00,59,19.90
2010,07,07,01,00,19.90
2010,07,07,01,01,19.80
2010,07,07,01,02,19.80
2010,07,07,01,03,19.80
2010,07,07,01,04,19.80
2010,07,07,01,05,19.80
2010,07,07,01,06,19.80
2010,07,07,01,07,19.70
2010,07,07,01,08,19.70
2010,07,07,01,09,19.70
2010,07,07,01,10,19.70
2010,07,07,01,11,19.70
2010,07,07,01,12,19.70
2010,07,07,01,13,19.70
2010,07,07,01,14,19.70
2010,07,07,01,15,19.70
2010,07,07,01,16,19.70
2010,07,07,01,17,19.70
2010,07,07,01,18,19.70
2010,07,07,01,19,19.70
2010,07,07,01,20,19.70
2010,07,07,01,21,19.70
2010,07,07,01,22,19.70
2010,07,07,01,23,19.70
2010,07,07,01,24,19.70
2010,07,07,01,25,19.70
2010,07,07,01,26,19.60
2010,07,07,01,27,19.60
2010,07,07,01,28,19.60
2010,07,07,01,29,19.60
2010,07,07,01,30,19.50
2010,07,07,01,31,19.50
2010,07,07,01,32,19.40
2010,07,07,01,33,19.40
2010,07,07,01,34,19.40
2010,07,07,01,35,19.30
2010,07,07,01,36,19.30
2010,07,07,01,37,19.30
2010,07,07,01,38,19.30
2010,07,07,01,39,19.30
2010,07,07,01,40,19.20
2010,07,07,01,41,19.20
2010,07,07,01,42,19.20
2010,07,07,01,43,19.20
2010,07,07,01,44,19.20
2010,07,07,01,45,19.10
2010,07,07,01,46,19.10
2010,07,07,01,47,19.10
2010,07,07,01,48,19.10
2010,07,07,01,49,19.10
2010,07,07,01,50,19.10
2010,07,07,01,51,19.10
2010,07,07,01,52,19.10
2010,07,07,01,53,19.10
2010,07,07,01,54,19.10
2010,07,07,01,55,19.00
2010,07,07,01,56,19.00
2010,07,07,01,57,19.00
2010,07,07,01,58,18.90
2010,07,07,01,59,18.90
2010,07,07,02,00,18.90
2010,07,07,02,01,18.90
2010,07,07,02,02,18.80
2010,07,07,02,03,18.80
2010,07,07,02,04,18.80
2010,07,07,02,05,18.70
2010,07,07,02,06,18.70
2010,07,07,02,07,18.60
2010,07,07,02,08,18.60
2010,07,07,02,09,18.50
2010,07,07,02,10,18.40
2010,07,07,02,11,18.30
2010,07,07,02,12,18.20
2010,07,07,02,13,18.10
2010,07,07,02,14,18.00
2010,07,07,02,15,17.90
2010,07,07,02,16,17.90
2010,07,07,02,17,17.80
2010,07,07,02,18,17.70
2010,07,07,02,19,17.70
2010,07,07,02,20,17.60
2010,07,07,02,21,17.50
2010,07,07,02,22,17.50
2010,07,07,02,23,17.40
2010,07,07,02,24,17.40
2010,07,07,02,25,17.30
2010,07,07,02,26,17.20
2010,07,07,02,27,17.20
2010,07,07,02,28,17.10
2010,07,07,02,29,17.00
2010,07,07,02,30,17.00
2010,07,07,02,31,16.90
2010,07,07,02,32,16.90
2010,07,07,02,33,16.80
2010,07,07,02,34,16.80
2010,07,07,02,35,16.70
2010,07,07,02,36,16.70
2010,07,07,02,37,16.70
2010,07,07,02,38,16.70
2010,07,07,02,39,16.70
2010,07,07,02,40,16.70
2010,07,07,02,41,16.70
2010,07,07,02,42,16.80
2010,07,07,02,43,16.90
2010,07,07,02,44,16.90
2010,07,07,02,45,17.00
2010,07,07,02,46,17.20
2010,07,07,02,47,17.30
2010,07,07,02,48,17.40
2010,07,07,02,49,17.50
2010,07,07,02,50,17.60
2010,07,07,02,51,17.70
2010,07,07,02,52,17.80
2010,07,07,02,53,17.90
2010,07,07,02,54,17.90
2010,07,07,02,55,17.90
2010,07,07,02,56,18.00
2010,07,07,02,57,18.00
2010,07,07,02,58,18.10
2010,07,07,02,59,18.10
2010,07,07,03,00,18.10
2010,07,07,03,01,18.10
2010,07,07,03,02,18.10
2010,07,07,03,03,18.00
2010,07,07,03,04,18.00
2010,07,07,03,05,17.90
2010,07,07,03,06,17.90
2010,07,07,03,07,17.80
2010,07,07,03,08,17.70
2010,07,07,03,09,17.60
2010,07,07,03,10,17.50
2010,07,07,03,11,17.40
2010,07,07,03,12,17.40
2010,07,07,03,13,17.30
2010,07,07,03,14,17.30
2010,07,07,03,15,17.20
2010,07,07,03,16,17.10
2010,07,07,03,17,17.10
2010,07,07,03,18,17.00
2010,07,07,03,19,16.90
2010,07,07,03,20,16.90
2010,07,07,03,21,16.80
2010,07,07,03,22,16.80
2010,07,07,03,23,16.80
2010,07,07,03,24,16.90
2010,07,07,03,25,16.90
2010,07,07,03,26,16.90
2010,07,07,03,27,17.00
2010,07,07,03,28,17.00
2010,07,07,03,29,17.10
2010,07,07,03,30,17.10
2010,07,07,03,31,17.10
2010,07,07,03,32,17.20
2010,07,07,03,33,17.20
2010,07,07,03,34,17.20
2010,07,07,03,35,17.20
2010,07,07,03,36,17.20
2010,07,07,03,37,17.20
2010,07,07,03,38,17.20
2010,07,07,03,39,17.20
2010,07,07,03,40,17.10
2010,07,07,03,41,17.10
2010,07,07,03,42,17.10
2010,07,07,03,43,17.10
2010,07,07,03,44,17.10
2010,07,07,03,45,17.10
2010,07,07,03,46,17.10
2010,07,07,03,47,17.20
2010,07,07,03,48,17.20
2010,07,07,03,49,17.20
2010,07,07,03,50,17.20
2010,07,07,03,51,17.20
2010,07,07,03,52,17.30
2010,07,07,03,53,17.30
2010,07,07,03,54,17.30
2010,07,07,03,55,17.30
2010,07,07,03,56,17.30
2010,07,07,03,57,17.30
2010,07,07,03,58,17.30
2010,07,07,03,59,17.30
2010,07,07,04,00,17.30
2010,07,07,04,01,17.30
2010,07,07,04,02,17.30
2010,07,07,04,03,17.30
2010,07,07,04,04,17.20
2010,07,07,04,05,17.20
2010,07,07,04,06,17.20
2010,07,07,04,07,17.20
2010,07,07,04,08,17.20
2010,07,07,04,09,17.20
2010,07,07,04,10,17.10
2010,07,07,04,11,17.10
2010,07,07,04,12,17.10
2010,07,07,04,13,17.00
2010,07,07,04,14,16.90
2010,07,07,04,15,16.90
2010,07,07,04,16,16.80
2010,07,07,04,17,16.80
2010,07,07,04,18,16.70
2010,07,07,04,19,16.70
2010,07,07,04,20,16.70
2010,07,07,04,21,16.70
2010,07,07,04,22,16.70
2010,07,07,04,23,16.70
2010,07,07,04,24,16.70
2010,07,07,04,25,16.70
2010,07,07,04,26,16.70
2010,07,07,04,27,16.70
2010,07,07,04,28,16.70
2010,07,07,04,29,16.70
2010,07,07,04,30,16.80
2010,07,07,04,31,16.80
2010,07,07,04,32,16.80
2010,07,07,04,33,16.80
2010,07,07,04,34,16.90
2010,07,07,04,35,16.90
2010,07,07,04,36,16.90
2010,07,07,04,37,16.90
2010,07,07,04,38,16.90
2010,07,07,04,39,16.90
2010,07,07,04,40,16.90
2010,07,07,04,41,16.90
2010,07,07,04,42,16.90
2010,07,07,04,43,16.80
2010,07,07,04,44,16.80
2010,07,07,04,45,16.70
2010,07,07,04,46,16.70
2010,07,07,04,47,16.60
2010,07,07,04,48,16.60
2010,07,07,04,49,16.50
2010,07,07,04,50,16.50
2010,07,07,04,51,16.50
2010,07,07,04,52,16.40
2010,07,07,04,53,16.40
2010,07,07,04,54,16.40
2010,07,07,04,55,16.40
2010,07,07,04,56,16.40
2010,07,07,04,57,16.30
2010,07,07,04,58,16.30
2010,07,07,04,59,16.30
2010,07,07,05,00,16.30
2010,07,07,05,01,16.30
2010,07,07,05,02,16.30
2010,07,07,05,03,16.30
2010,07,07,05,04,16.30
2010,07,07,05,05,16.30
2010,07,07,05,06,16.30
2010,07,07,05,07,16.30
2010,07,07,05,08,16.40
2010,07,07,05,09,16.40
2010,07,07,05,10,16.40
2010,07,07,05,11,16.40
2010,07,07,05,12,16.40
2010,07,07,05,13,16.40
2010,07,07,05,14,16.40
2010,07,07,05,15,16.40
2010,07,07,05,16,16.40
2010,07,07,05,17,16.40
2010,07,07,05,18,16.40
2010,07,07,05,19,16.40
2010,07,07,05,20,16.40
2010,07,07,05,21,16.40
2010,07,07,05,22,16.30
2010,07,07,05,23,16.30
2010,07,07,05,24,16.30
2010,07,07,05,25,16.30
2010,07,07,05,26,16.30
2010,07,07,05,27,16.30
2010,07,07,05,28,16.30
2010,07,07,05,29,16.30
2010,07,07,05,30,16.30
2010,07,07,05,31,16.30
2010,07,07,05,32,16.30
2010,07,07,05,33,16.30
2010,07,07,05,34,16.30
2010,07,07,05,35,16.30
2010,07,07,05,36,16.30
2010,07,07,05,37,16.30
2010,07,07,05,38,16.30
2010,07,07,05,39,16.30
2010,07,07,05,40,16.20
2010,07,07,05,41,16.20
2010,07,07,05,42,16.20
2010,07,07,05,43,16.20
2010,07,07,05,44,16.20
2010,07,07,05,45,16.10
2010,07,07,05,46,16.20
2010,07,07,05,47,16.20
2010,07,07,05,48,16.20
2010,07,07,05,49,16.20
2010,07,07,05,50,16.20
2010,07,07,05,51,16.30
2010,07,07,05,52,16.30
2010,07,07,05,53,16.30
2010,07,07,05,54,16.40
2010,07,07,05,55,16.40
2010,07,07,05,56,16.40
2010,07,07,05,57,16.50
2010,07,07,05,58,16.50
2010,07,07,05,59,16.50
2010,07,07,06,00,16.50
2010,07,07,06,01,16.50
2010,07,07,06,02,16.50
2010,07,07,06,03,16.50
2010,07,07,06,04,16.60
2010,07,07,06,05,16.60
2010,07,07,06,06,16.60
2010,07,07,06,07,16.70
2010,07,07,06,08,16.70
2010,07,07,06,09,16.80
2010,07,07,06,10,16.90
2010,07,07,06,11,16.90
2010,07,07,06,12,16.90
2010,07,07,06,13,17.00
2010,07,07,06,14,17.00
2010,07,07,06,15,17.10
2010,07,07,06,16,17.10
2010,07,07,06,17,17.10
2010,07,07,06,18,17.20
2010,07,07,06,19,17.20
2010,07,07,06,20,17.30
2010,07,07,06,21,17.30
2010,07,07,06,22,17.40
2010,07,07,06,23,17.40
2010,07,07,06,24,17.40
2010,07,07,06,25,17.50
2010,07,07,06,26,17.50
2010,07,07,06,27,17.60
2010,07,07,06,28,17.70
2010,07,07,06,29,17.70
2010,07,07,06,30,17.80
2010,07,07,06,31,17.80
2010,07,07,06,32,17.90
2010,07,07,06,33,18.00
2010,07,07,06,34,18.00
2010,07,07,06,35,18.10
2010,07,07,06,36,18.10
2010,07,07,06,37,18.20
2010,07,07,06,38,18.20
2010,07,07,06,39,18.30
2010,07,07,06,40,18.30
2010,07,07,06,41,18.40
2010,07,07,06,42,18.40
2010,07,07,06,43,18.50
2010,07,07,06,44,18.50
2010,07,07,06,45,18.60
2010,07,07,06,46,18.60
2010,07,07,06,47,18.70
2010,07,07,06,48,18.70
2010,07,07,06,49,18.80
2010,07,07,06,50,18.90
2010,07,07,06,51,18.90
2010,07,07,06,52,18.90
2010,07,07,06,53,19.00
2010,07,07,06,54,19.00
2010,07,07,06,55,19.10
2010,07,07,06,56,19.20
2010,07,07,06,57,19.20
2010,07,07,06,58,19.30
2010,07,07,06,59,19.30
2010,07,07,07,00,19.30
2010,07,07,07,01,19.40
2010,07,07,07,02,19.40
2010,07,07,07,03,19.50
2010,07,07,07,04,19.50
2010,07,07,07,05,19.60
2010,07,07,07,06,19.60
2010,07,07,07,07,19.60
2010,07,07,07,08,19.70
2010,07,07,07,09,19.70
2010,07,07,07,10,19.70
2010,07,07,07,11,19.70
2010,07,07,07,12,19.70
2010,07,07,07,13,19.70
2010,07,07,07,14,19.80
2010,07,07,07,15,19.80
2010,07,07,07,16,19.80
2010,07,07,07,17,19.80
2010,07,07,07,18,19.80
2010,07,07,07,19,19.80
2010,07,07,07,20,19.90
2010,07,07,07,21,19.90
2010,07,07,07,22,19.90
2010,07,07,07,23,19.90
2010,07,07,07,24,19.80
2010,07,07,07,25,19.80
2010,07,07,07,26,19.80
2010,07,07,07,27,19.80
2010,07,07,07,28,19.80
2010,07,07,07,29,19.80
2010,07,07,07,30,19.80
2010,07,07,07,31,19.80
2010,07,07,07,32,19.90
2010,07,07,07,33,19.90
2010,07,07,07,34,19.90
2010,07,07,07,35,20.00
2010,07,07,07,36,20.00
2010,07,07,07,37,20.00
2010,07,07,07,38,20.10
2010,07,07,07,39,20.10
2010,07,07,07,40,20.20
2010,07,07,07,41,20.20
2010,07,07,07,42,20.30
2010,07,07,07,43,20.30
2010,07,07,07,44,20.30
2010,07,07,07,45,20.30
2010,07,07,07,46,20.30
2010,07,07,07,47,20.30
2010,07,07,07,48,20.40
2010,07,07,07,49,20.40
2010,07,07,07,50,20.40
2010,07,07,07,51,20.40
2010,07,07,07,52,20.40
2010,07,07,07,53,20.40
2010,07,07,07,54,20.40
2010,07,07,07,55,20.30
2010,07,07,07,56,20.30
2010,07,07,07,57,20.30
2010,07,07,07,58,20.20
2010,07,07,07,59,20.20
2010,07,07,08,00,20.20
2010,07,07,08,01,20.20
2010,07,07,08,02,20.20
2010,07,07,08,03,20.10
2010,07,07,08,04,20.10
2010,07,07,08,05,20.00
2010,07,07,08,06,20.00
2010,07,07,08,07,20.00
2010,07,07,08,08,20.00
2010,07,07,08,09,20.00
2010,07,07,08,10,20.00
2010,07,07,08,11,20.00
2010,07,07,08,12,20.10
2010,07,07,08,13,20.10
2010,07,07,08,14,20.10
2010,07,07,08,15,20.20
2010,07,07,08,16,20.20
2010,07,07,08,17,20.30
2010,07,07,08,18,20.40
2010,07,07,08,19,20.40
2010,07,07,08,20,20.50
2010,07,07,08,21,20.60
2010,07,07,08,22,20.60
2010,07,07,08,23,20.70
2010,07,07,08,24,20.70
2010,07,07,08,25,20.70
2010,07,07,08,26,20.80
2010,07,07,08,27,20.90
2010,07,07,08,28,21.00
2010,07,07,08,29,21.10
2010,07,07,08,30,21.20
2010,07,07,08,31,21.30
2010,07,07,08,32,21.30
2010,07,07,08,33,21.40
2010,07,07,08,34,21.40
2010,07,07,08,35,21.50
2010,07,07,08,36,21.50
2010,07,07,08,37,21.50
2010,07,07,08,38,21.50
2010,07,07,08,39,21.60
2010,07,07,08,40,21.60
2010,07,07,08,41,21.70
2010,07,07,08,42,21.70
2010,07,07,08,43,21.70
2010,07,07,08,44,21.70
2010,07,07,08,45,21.80
2010,07,07,08,46,21.80
2010,07,07,08,47,21.80
2010,07,07,08,48,21.80
2010,07,07,08,49,21.80
2010,07,07,08,50,21.80
2010,07,07,08,51,21.80
2010,07,07,08,52,21.80
2010,07,07,08,53,21.90
2010,07,07,08,54,21.90
2010,07,07,08,55,21.90
2010,07,07,08,56,21.80
2010,07,07,08,57,21.80
2010,07,07,08,58,21.80
2010,07,07,08,59,21.80
2010,07,07,09,00,21.80
2010,07,07,09,01,21.80
2010,07,07,09,02,21.70
2010,07,07,09,03,21.70
2010,07,07,09,04,21.60
2010,07,07,09,05,21.50
2010,07,07,09,06,21.40
2010,07,07,09,07,21.40
2010,07,07,09,08,21.40
2010,07,07,09,09,21.40
2010,07,07,09,10,21.50
2010,07,07,09,11,21.50
2010,07,07,09,12,21.50
2010,07,07,09,13,21.50
2010,07,07,09,14,21.40
2010,07,07,09,15,21.30
2010,07,07,09,16,21.30
2010,07,07,09,17,21.30
2010,07,07,09,18,21.20
2010,07,07,09,19,21.20
2010,07,07,09,20,21.20
2010,07,07,09,21,21.20
2010,07,07,09,22,21.20
2010,07,07,09,23,21.20
2010,07,07,09,24,21.20
2010,07,07,09,25,21.30
2010,07,07,09,26,21.30
2010,07,07,09,27,21.40
2010,07,07,09,28,21.40
2010,07,07,09,29,21.50
2010,07,07,09,30,21.50
2010,07,07,09,31,21.40
2010,07,07,09,32,21.40
2010,07,07,09,33,21.30
2010,07,07,09,34,21.30
2010,07,07,09,35,21.30
2010,07,07,09,36,21.30
2010,07,07,09,37,21.30
2010,07,07,09,38,21.30
2010,07,07,09,39,21.30
2010,07,07,09,40,21.20
2010,07,07,09,41,21.10
2010,07,07,09,42,21.00
2010,07,07,09,43,21.00
2010,07,07,09,44,20.90
2010,07,07,09,45,21.00
2010,07,07,09,46,20.90
2010,07,07,09,47,20.90
2010,07,07,09,48,20.80
2010,07,07,09,49,20.80
2010,07,07,09,50,20.80
2010,07,07,09,51,20.70
2010,07,07,09,52,20.70
2010,07,07,09,53,20.60
2010,07,07,09,54,20.60
2010,07,07,09,55,20.50
2010,07,07,09,56,20.50
2010,07,07,09,57,20.50
2010,07,07,09,58,20.50
2010,07,07,09,59,20.50
2010,07,07,10,00,20.40
2010,07,07,10,01,20.30
2010,07,07,10,02,20.30
2010,07,07,10,03,20.30
2010,07,07,10,04,20.30
2010,07,07,10,05,20.30
2010,07,07,10,06,20.30
2010,07,07,10,07,20.20
2010,07,07,10,08,20.20
2010,07,07,10,09,20.20
2010,07,07,10,10,20.30
2010,07,07,10,11,20.30
2010,07,07,10,12,20.40
2010,07,07,10,13,20.50
2010,07,07,10,14,20.60
2010,07,07,10,15,20.60
2010,07,07,10,16,20.60
2010,07,07,10,17,20.60
2010,07,07,10,18,20.50
2010,07,07,10,19,20.40
2010,07,07,10,20,20.40
2010,07,07,10,21,20.40
2010,07,07,10,22,20.40
2010,07,07,10,23,20.40
2010,07,07,10,24,20.50
2010,07,07,10,25,20.40
2010,07,07,10,26,20.40
2010,07,07,10,27,20.40
2010,07,07,10,28,20.40
2010,07,07,10,29,20.40
2010,07,07,10,30,20.40
2010,07,07,10,31,20.40
2010,07,07,10,32,20.40
2010,07,07,10,33,20.50
2010,07,07,10,34,20.60
2010,07,07,10,35,20.70
2010,07,07,10,36,20.70
2010,07,07,10,37,20.80
2010,07,07,10,38,20.80
2010,07,07,10,39,20.90
2010,07,07,10,40,21.00
2010,07,07,10,41,21.10
2010,07,07,10,42,21.30
2010,07,07,10,43,21.30
2010,07,07,10,44,21.30
2010,07,07,10,45,21.40
2010,07,07,10,46,21.50
2010,07,07,10,47,21.60
2010,07,07,10,48,21.70
2010,07,07,10,49,21.70
2010,07,07,10,50,21.80
2010,07,07,10,51,21.80
2010,07,07,10,52,21.80
2010,07,07,10,53,21.80
2010,07,07,10,54,21.80
2010,07,07,10,55,21.80
2010,07,07,10,56,21.80
2010,07,07,10,57,21.80
2010,07,07,10,58,21.80
2010,07,07,10,59,21.80
2010,07,07,11,00,21.80
2010,07,07,11,01,21.80
2010,07,07,11,02,21.80
2010,07,07,11,03,21.80
2010,07,07,11,04,21.90
2010,07,07,11,05,21.90
2010,07,07,11,06,22.00
2010,07,07,11,07,22.10
2010,07,07,11,08,22.10
2010,07,07,11,09,22.20
2010,07,07,11,10,22.20
2010,07,07,11,11,22.30
2010,07,07,11,12,22.40
2010,07,07,11,13,22.40
2010,07,07,11,14,22.40
2010,07,07,11,15,22.50
2010,07,07,11,16,22.60
2010,07,07,11,17,22.60
2010,07,07,11,18,22.70
2010,07,07,11,19,22.80
2010,07,07,11,20,22.80
2010,07,07,11,21,22.90
2010,07,07,11,22,22.90
2010,07,07,11,23,22.90
2010,07,07,11,24,22.90
2010,07,07,11,25,22.90
2010,07,07,11,26,22.90
2010,07,07,11,27,22.90
2010,07,07,11,28,22.90
2010,07,07,11,29,22.80
2010,07,07,11,30,22.80
2010,07,07,11,31,22.80
2010,07,07,11,32,22.80
2010,07,07,11,33,22.70
2010,07,07,11,34,22.70
2010,07,07,11,35,22.70
2010,07,07,11,36,22.70
2010,07,07,11,37,22.70
2010,07,07,11,38,22.80
2010,07,07,11,39,22.80
2010,07,07,11,40,22.80
2010,07,07,11,41,22.90
2010,07,07,11,42,22.90
2010,07,07,11,43,23.00
2010,07,07,11,44,23.00
2010,07,07,11,45,23.10
2010,07,07,11,46,23.10
2010,07,07,11,47,23.10
2010,07,07,11,48,23.20
2010,07,07,11,49,23.20
2010,07,07,11,50,23.20
2010,07,07,11,51,23.30
2010,07,07,11,52,23.30
2010,07,07,11,53,23.30
2010,07,07,11,54,23.30
2010,07,07,11,55,23.40
2010,07,07,11,56,23.40
2010,07,07,11,57,23.40
2010,07,07,11,58,23.50
2010,07,07,11,59,23.60
2010,07,07,12,00,23.70
2010,07,07,12,01,23.80
2010,07,07,12,02,23.90
2010,07,07,12,03,23.90
2010,07,07,12,04,23.90
2010,07,07,12,05,23.70
2010,07,07,12,06,23.50
2010,07,07,12,07,23.30
2010,07,07,12,08,23.10
2010,07,07,12,09,22.90
2010,07,07,12,10,22.80
2010,07,07,12,11,22.70
2010,07,07,12,12,22.70
2010,07,07,12,13,22.70
2010,07,07,12,14,22.70
2010,07,07,12,15,22.70
2010,07,07,12,16,22.70
2010,07,07,12,17,22.80
2010,07,07,12,18,22.80
2010,07,07,12,19,22.80
2010,07,07,12,20,22.90
2010,07,07,12,21,23.00
2010,07,07,12,22,23.10
2010,07,07,12,23,23.30
2010,07,07,12,24,23.40
2010,07,07,12,25,23.50
2010,07,07,12,26,23.60
2010,07,07,12,27,23.70
2010,07,07,12,28,23.80
2010,07,07,12,29,23.90
2010,07,07,12,30,23.90
2010,07,07,12,31,24.00
2010,07,07,12,32,24.00
2010,07,07,12,33,23.90
2010,07,07,12,34,23.90
2010,07,07,12,35,23.90
2010,07,07,12,36,23.90
2010,07,07,12,37,24.00
2010,07,07,12,38,24.00
2010,07,07,12,39,24.10
2010,07,07,12,40,24.10
2010,07,07,12,41,24.10
2010,07,07,12,42,24.10
2010,07,07,12,43,24.10
2010,07,07,12,44,24.20
2010,07,07,12,45,24.30
2010,07,07,12,46,24.30
2010,07,07,12,47,24.30
2010,07,07,12,48,24.40
2010,07,07,12,49,24.30
2010,07,07,12,50,24.30
2010,07,07,12,51,24.30
2010,07,07,12,52,24.20
2010,07,07,12,53,24.10
2010,07,07,12,54,24.10
2010,07,07,12,55,24.10
2010,07,07,12,56,24.20
2010,07,07,12,57,24.10
2010,07,07,12,58,24.10
2010,07,07,12,59,24.00
2010,07,07,13,00,24.00
2010,07,07,13,01,24.00
2010,07,07,13,02,24.10
2010,07,07,13,03,24.10
2010,07,07,13,04,24.20
2010,07,07,13,05,24.10
2010,07,07,13,06,24.10
2010,07,07,13,07,24.10
2010,07,07,13,08,24.10
2010,07,07,13,09,24.20
2010,07,07,13,10,24.20
2010,07,07,13,11,24.30
2010,07,07,13,12,24.30
2010,07,07,13,13,24.40
2010,07,07,13,14,24.40
2010,07,07,13,15,24.50
2010,07,07,13,16,24.60
2010,07,07,13,17,24.70
2010,07,07,13,18,24.90
2010,07,07,13,19,25.00
2010,07,07,13,20,25.00
2010,07,07,13,21,25.00
2010,07,07,13,22,25.10
2010,07,07,13,23,25.20
2010,07,07,13,24,25.30
2010,07,07,13,25,25.40
2010,07,07,13,26,25.50
2010,07,07,13,27,25.60
2010,07,07,13,28,25.60
2010,07,07,13,29,25.60
2010,07,07,13,30,25.60
2010,07,07,13,31,25.60
2010,07,07,13,32,25.60
2010,07,07,13,33,25.70
2010,07,07,13,34,25.80
2010,07,07,13,35,25.80
2010,07,07,13,36,25.90
2010,07,07,13,37,25.90
2010,07,07,13,38,25.90
2010,07,07,13,39,25.90
2010,07,07,13,40,25.90
2010,07,07,13,41,25.80
2010,07,07,13,42,25.90
2010,07,07,13,43,25.90
2010,07,07,13,44,25.90
2010,07,07,13,45,25.90
2010,07,07,13,46,25.90
2010,07,07,13,47,26.00
2010,07,07,13,48,26.10
2010,07,07,13,49,26.20
2010,07,07,13,50,26.30
2010,07,07,13,51,26.40
2010,07,07,13,52,26.50
2010,07,07,13,53,26.50
2010,07,07,13,54,26.50
2010,07,07,13,55,26.50
2010,07,07,13,56,26.50
2010,07,07,13,57,26.60
2010,07,07,13,58,26.70
2010,07,07,13,59,26.70
2010,07,07,14,00,26.80
2010,07,07,14,01,26.80
2010,07,07,14,02,26.90
2010,07,07,14,03,26.90
2010,07,07,14,04,26.90
2010,07,07,14,05,26.80
2010,07,07,14,06,26.80
2010,07,07,14,07,26.80
2010,07,07,14,08,26.90
2010,07,07,14,09,26.90
2010,07,07,14,10,26.90
2010,07,07,14,11,26.90
2010,07,07,14,12,26.90
2010,07,07,14,13,27.00
2010,07,07,14,14,27.00
2010,07,07,14,15,27.10
2010,07,07,14,16,27.20
2010,07,07,14,17,27.40
2010,07,07,14,18,27.40
2010,07,07,14,19,27.30
2010,07,07,14,20,27.20
2010,07,07,14,21,27.10
2010,07,07,14,22,27.10
2010,07,07,14,23,27.10
2010,07,07,14,24,27.10
2010,07,07,14,25,27.10
2010,07,07,14,26,27.10
2010,07,07,14,27,27.20
2010,07,07,14,28,27.20
2010,07,07,14,29,27.30
2010,07,07,14,30,27.40
2010,07,07,14,31,27.50
2010,07,07,14,32,27.60
2010,07,07,14,33,27.70
2010,07,07,14,34,27.60
2010,07,07,14,35,27.70
2010,07,07,14,36,27.70
2010,07,07,14,37,27.80
2010,07,07,14,38,27.80
2010,07,07,14,39,27.80
2010,07,07,14,40,27.80
2010,07,07,14,41,27.80
2010,07,07,14,42,27.80
2010,07,07,14,43,27.80
2010,07,07,14,44,27.90
2010,07,07,14,45,27.90
2010,07,07,14,46,27.90
2010,07,07,14,47,27.90
2010,07,07,14,48,28.00
2010,07,07,14,49,28.10
2010,07,07,14,50,28.10
2010,07,07,14,51,28.10
2010,07,07,14,52,28.10
2010,07,07,14,53,28.20
2010,07,07,14,54,28.10
2010,07,07,14,55,28.10
2010,07,07,14,56,28.00
2010,07,07,14,57,28.00
2010,07,07,14,58,27.90
2010,07,07,14,59,27.90
2010,07,07,15,00,27.80
2010,07,07,15,01,27.80
2010,07,07,15,02,27.70
2010,07,07,15,03,27.70
2010,07,07,15,04,27.70
2010,07,07,15,05,27.70
2010,07,07,15,06,27.70
2010,07,07,15,07,27.70
2010,07,07,15,08,27.70
2010,07,07,15,09,27.80
2010,07,07,15,10,27.80
2010,07,07,15,11,27.80
2010,07,07,15,12,27.80
2010,07,07,15,13,27.80
2010,07,07,15,14,27.90
2010,07,07,15,15,27.90
2010,07,07,15,16,27.90
2010,07,07,15,17,27.80
2010,07,07,15,18,27.80
2010,07,07,15,19,27.80
2010,07,07,15,20,27.80
2010,07,07,15,21,27.80
2010,07,07,15,22,27.80
2010,07,07,15,23,27.80
2010,07,07,15,24,27.70
2010,07,07,15,25,27.70
2010,07,07,15,26,27.70
2010,07,07,15,27,27.70
2010,07,07,15,28,27.70
2010,07,07,15,29,27.70
2010,07,07,15,30,27.70
2010,07,07,15,31,27.70
2010,07,07,15,32,27.70
2010,07,07,15,33,27.70
2010,07,07,15,34,27.70
2010,07,07,15,35,27.70
2010,07,07,15,36,27.70
2010,07,07,15,37,27.80
2010,07,07,15,38,27.80
2010,07,07,15,39,27.70
2010,07,07,15,40,27.70
2010,07,07,15,41,27.60
2010,07,07,15,42,27.60
2010,07,07,15,43,27.60
2010,07,07,15,44,27.60
2010,07,07,15,45,27.70
2010,07,07,15,46,27.60
2010,07,07,15,47,27.60
2010,07,07,15,48,27.60
2010,07,07,15,49,27.60
2010,07,07,15,50,27.70
2010,07,07,15,51,27.70
2010,07,07,15,52,27.80
2010,07,07,15,53,27.80
2010,07,07,15,54,27.80
2010,07,07,15,55,27.80
2010,07,07,15,56,27.90
2010,07,07,15,57,27.90
2010,07,07,15,58,28.10
2010,07,07,15,59,28.20
2010,07,07,16,00,28.30
2010,07,07,16,01,28.30
2010,07,07,16,02,28.40
2010,07,07,16,03,28.50
2010,07,07,16,04,28.60
2010,07,07,16,05,28.60
2010,07,07,16,06,28.70
2010,07,07,16,07,28.70
2010,07,07,16,08,28.70
2010,07,07,16,09,28.70
2010,07,07,16,10,28.80
2010,07,07,16,11,28.90
2010,07,07,16,12,28.90
2010,07,07,16,13,29.00
2010,07,07,16,14,29.00
2010,07,07,16,15,29.10
2010,07,07,16,16,29.10
2010,07,07,16,17,29.10
2010,07,07,16,18,29.00
2010,07,07,16,19,29.00
2010,07,07,16,20,29.00
2010,07,07,16,21,29.00
2010,07,07,16,22,29.10
2010,07,07,16,23,29.10
2010,07,07,16,24,29.20
2010,07,07,16,25,29.30
2010,07,07,16,26,29.30
2010,07,07,16,27,29.30
2010,07,07,16,28,29.30
2010,07,07,16,29,29.30
2010,07,07,16,30,29.30
2010,07,07,16,31,29.30
2010,07,07,16,32,29.30
2010,07,07,16,33,29.30
2010,07,07,16,34,29.30
2010,07,07,16,35,29.30
2010,07,07,16,36,29.30
2010,07,07,16,37,29.30
2010,07,07,16,38,29.30
2010,07,07,16,39,29.40
2010,07,07,16,40,29.40
2010,07,07,16,41,29.40
2010,07,07,16,42,29.40
2010,07,07,16,43,29.40
2010,07,07,16,44,29.40
2010,07,07,16,45,29.30
2010,07,07,16,46,29.20
2010,07,07,16,47,29.10
2010,07,07,16,48,29.20
2010,07,07,16,49,29.20
2010,07,07,16,50,29.20
2010,07,07,16,51,29.20
2010,07,07,16,52,29.20
2010,07,07,16,53,29.30
2010,07,07,16,54,29.30
2010,07,07,16,55,29.30
2010,07,07,16,56,29.30
2010,07,07,16,57,29.30
2010,07,07,16,58,29.20
2010,07,07,16,59,29.20
2010,07,07,17,00,29.20
2010,07,07,17,01,29.20
2010,07,07,17,02,29.30
2010,07,07,17,03,29.40
2010,07,07,17,04,29.50
2010,07,07,17,05,29.50
2010,07,07,17,06,29.60
2010,07,07,17,07,29.70
2010,07,07,17,08,29.70
2010,07,07,17,09,29.70
2010,07,07,17,10,29.70
2010,07,07,17,11,29.70
2010,07,07,17,12,29.80
2010,07,07,17,13,29.80
2010,07,07,17,14,29.70
2010,07,07,17,15,29.60
2010,07,07,17,16,29.60
2010,07,07,17,17,29.60
2010,07,07,17,18,29.50
2010,07,07,17,19,29.50